Regional Weather Roundup
Issued by NWS

Home | Current Version | Previous Version | Graphics & Text | Print | Product List | Glossary On
Versions: 1 2 3 4 5 6 7 8 9 10 11 12 13 14 15 16 17 18 19 20 21 22 23 24 25 26 27 28 29 30 31 32 33 34 35 36 37 38 39 40 41 42 43 44 45 46 47 48 49 50
000
ASUS43 KOAX 181202
RWRNE

WEATHER ROUNDUP FOR NEBRASKA
NATIONAL WEATHER SERVICE OMAHA NE
600 AM CST SAT NOV 18 2017

NOTES: SATELLITE DATA IS BEING USED TO AUGMENT CLOUD COVER ABOVE
       12000 FEET.
       "FAIR" INDICATES FEW OR NO CLOUDS BELOW 12,000 FEET WITH NO
       SIGNIFICANT WEATHER AND/OR OBSTRUCTIONS TO VISIBILITY.


NEZ001>004-019>022-054>056-181300-
NEBRASKA PANHANDLE

CITY           SKY/WX    TMP DP  RH WIND       PRES   REMARKS
SCOTTSBLUFF    CLEAR     31  18  58 NW13      30.12R WCI  21
6HR MIN TEMP:  30; 6HR MAX TEMP:  39;

ALLIANCE       CLEAR     30  21  69 NW15      30.07R WCI  19
6HR MIN TEMP:  30; 6HR MAX TEMP:  36;

CHADRON        CLEAR     30  23  75 W15       30.09R WCI  19
6HR MIN TEMP:  30; 6HR MAX TEMP:  37;

GORDON         FAIR      31  26  84 W13       30.04R WCI  21
6HR MIN TEMP:  30; 6HR MAX TEMP:  37;

KIMBALL        PTCLDY    28  22  78 NW10      30.13R WCI  18
SIDNEY         CLEAR     30  20  66 NW15      30.11R WCI  19
6HR MIN TEMP:  30; 6HR MAX TEMP:  37;

$$

NEZ057>060-069>072-079>082-181300-
SOUTHWEST NEBRASKA

CITY           SKY/WX    TMP DP  RH WIND       PRES   REMARKS
NORTH PLATTE   PTCLDY    35  33  92 NW10      30.00R WCI  27
6HR MIN TEMP:  35; 6HR MAX TEMP:  41; 6HR PCP:  0.03;

IMPERIAL       CLEAR     36  30  79 NW23G31   30.04R WCI  24
6HR MIN TEMP:  36; 6HR MAX TEMP:  43; 6HR PCP:  0.02;

LEXINGTON      CLOUDY    38  35  87 NW16      29.96R WCI  29
MCCOOK         CLOUDY    39  36  89 NW16      29.98R WCI  30
6HR MIN TEMP:  38; 6HR MAX TEMP:  42; 6HR PCP:  0.12;

OGALLALA       CLEAR     36  31  82 NW21      30.05R WCI  25
$$

NEZ005>010-023>029-035>040-094-181300-
NORTH CENTRAL NEBRASKA

CITY           SKY/WX    TMP DP  RH WIND       PRES   REMARKS
VALENTINE      CLEAR     35  30  82 NW10      29.98R WCI  27
6HR MIN TEMP:  35; 6HR MAX TEMP:  38; 6HR PCP:  0.01;

AINSWORTH      CLEAR     35  34  94 NW20      29.96R WCI  24
BROKEN BOW     CLOUDY    38  34  85 NW18      29.94R WCI  28
6HR MIN TEMP:  36; 6HR MAX TEMP:  40; 6HR PCP:  0.05;

O`NEILL        CLOUDY    38  35  90 NW14      29.91R WCI  29
ORD            CLOUDY    38  35  89 NW18G26   29.90R WCI  28
6HR MIN TEMP:  38; 6HR MAX TEMP:  40; 6HR PCP:  0.02;

THEDFORD       PTCLDY    35  33  93 NW14      29.99R WCI  26
$$

NEZ041-046>049-061>064-073>077-083>087-181300-
SOUTH CENTRAL NEBRASKA

CITY           SKY/WX    TMP DP  RH WIND       PRES   REMARKS
GRAND ISLAND   CLOUDY    39  35  86 NW17      29.88R WCI  30
6HR MIN TEMP:  39; 6HR MAX TEMP:  40; 6HR PCP:  0.35;

AURORA         CLOUDY    38  33  83 N13       29.86R WCI  30
HASTINGS       CLOUDY    38  35  89 NW18      29.89R WCI  28
6HR MIN TEMP:  38; 6HR MAX TEMP:  41; 6HR PCP:  0.08;

HEBRON         CLOUDY    41  36  82 NW14G26   29.82R
HOLDREGE       CLOUDY    37  36  96 NW14      29.93R WCI  28
KEARNEY        CLOUDY    37  35  92 NW13      29.91R WCI  29
YORK           CLOUDY    37  36  93 N14G21    29.83R WCI  29
$$

NEZ011>018-030>034-042>045-181300-
NORTHEAST NEBRASKA

CITY           SKY/WX    TMP DP  RH WIND       PRES   REMARKS
NORFOLK        CLOUDY    35  29  78 NW14G22   29.84R WCI  26
6HR MIN TEMP:  35; 6HR MAX TEMP:  40; 6HR PCP:  0.01;

ALBION         CLOUDY    38  33  81 NW16      29.87R WCI  30
BLAIR          CLOUDY    38  34  88 N18G28    29.77R WCI  28
COLUMBUS       CLOUDY    38  30  73 NW17      29.84R WCI  28
FREMONT        CLOUDY    38  34  87 NW9G18    29.81S WCI  31
TEKAMAH        CLOUDY    37  33  85 N13       29.81R WCI  29
6HR MIN TEMP:  37; 6HR MAX TEMP:  43; 6HR PCP:  0.04;

WAYNE          CLOUDY    35  31  83 NW13G20   29.85R WCI  26
$$

NEZ050>053-065>068-078-088>093-181300-
SOUTHEAST NEBRASKA

CITY           SKY/WX    TMP DP  RH WIND       PRES   REMARKS
LINCOLN        CLOUDY    40  36  86 N18G30    29.79R WCI  31
6HR MIN TEMP:  40; 6HR MAX TEMP:  45; 6HR PCP:  0.06;

OMAHA EPPLEY   CLOUDY    38  33  82 N20G31    29.76R WCI  28
6HR MIN TEMP:  38; 6HR MAX TEMP:  48; 6HR PCP:  0.22;

BEATRICE       LGT RAIN  41  38  90 N23G30    29.77R
FALLS CITY     LGT RAIN  42  40  92 NW18G26   29.70R
6HR MIN TEMP:  42; 6HR MAX TEMP:  56; 6HR PCP:  0.21;

NEBRASKA CITY  CLOUDY    40  40 100 N23       29.72R WCI  30
PLATTSMOUTH    CLOUDY    39  37  94 N18G25    29.73R WCI  29
$$

NEZ044-045-051>053-067-181300-
OMAHA AREA

CITY           SKY/WX    TMP DP  RH WIND       PRES   REMARKS
OMAHA EPPLEY   CLOUDY    38  33  82 N20G31    29.76R WCI  28
6HR MIN TEMP:  38; 6HR MAX TEMP:  48; 6HR PCP:  0.22;

BLAIR          CLOUDY    38  34  88 N18G28    29.77R WCI  28
FREMONT        CLOUDY    38  34  87 NW9G18    29.81S WCI  31
MILLARD        CLOUDY    40  36  86 NW10G21   29.78R WCI  34
OFFUTT AFB     CLOUDY    39  35  86 N18G28    29.74R WCI  30
PLATTSMOUTH    CLOUDY    39  37  94 N18G25    29.73R WCI  29
WAHOO          CLOUDY    39  35  85 N18G25    29.79R WCI  29
$$




USA.gov is the U.S. government's official web portal to all federal, state and local government web resources and services.